Home > Weather > Słupsk > Past weeks

Flag for Poland Weather for the Past 2 Weeks in Słupsk, Poland

Now
47 °F

Sprinkles. Overcast.


Feels Like: 42 °F
Forecast: 42 / 44 °F
Wind: 10 mph from South

Location: Leba

Current Time: Feb 8, 2016 at 8:40:10 PM

Latest Report: Feb 8, 2016 at 8:00 PM


Visibility: 13 mi

Pressure: 29.29 "Hg

Humidity: 72%

Dew point: 38 °F

Location of SłupskLocation

Historic Weather in Słupsk — Graph

°F

Słupsk Temperature Yesterday

Maximum temperature yesterday: 53 °F (at 1:00 PM)
Minimum temperature yesterday: 39 °F (at 7:00 AM)
Average temperature yesterday: 45 °F

High & Low Weather Summary for the Past Weeks

 TemperatureHumidityPressure
High53 °F (Feb 7, 1:00 PM)97% (Jan 24, 8:00 PM)30.29 "Hg (Jan 24, 8:00 PM)
Low34 °F (Jan 25, 9:00 AM)55% (Feb 7, 3:00 PM)29.29 "Hg (Feb 8, 7:00 PM)
Average40 °F85%29.79 "Hg
* Reported Jan 24 7:00 PM — Feb 8 7:00 PM, Słupsk, Weather by CustomWeather, © 2016

Note: Actual official high and low records may vary slightly from our data, if they occured in-between our weather recording intervals... More about our weather records

Advertising

Słupsk Weather History for the Previous 24 Hours

 ConditionsComfort  
Time TempWeatherWind HumidityBarometerVisibility
7:00 PM
Mon, Feb 8
47 °FOvercast.9 mph68%29.29 "Hg12 mi
6:00 PM47 °FOvercast.7 mph70%29.32 "Hg12 mi
5:00 PM48 °FOvercast.9 mph65%29.32 "Hg12 mi
4:00 PM48 °FOvercast.10 mph63%29.35 "Hg12 mi
3:00 PM48 °FOvercast.10 mph64%29.35 "Hg12 mi
2:00 PM48 °FOvercast.10 mph63%29.38 "Hg12 mi
1:00 PM48 °FOvercast.10 mph62%29.41 "Hg12 mi
12:00 PM48 °FPassing clouds.28 mph63%29.41 "Hg16 mi
11:00 AM46 °FPartly sunny.9 mph70%29.47 "Hg12 mi
10:00 AM43 °FScattered clouds.10 mph78%29.50 "Hg12 mi
9:00 AM41 °FPassing clouds.8 mph85%29.54 "Hg12 mi
8:00 AM39 °FPartly sunny.8 mph88%29.57 "Hg12 mi
7:00 AM39 °FPassing clouds.7 mph88%29.58 "Hg12 mi
6:00 AM39 °FPassing clouds.7 mph88%29.58 "Hg12 mi
5:00 AM40 °FOvercast.6 mph91%29.59 "Hg12 mi
3:00 AM41 °FLight rain. Overcast.6 mph92%29.62 "Hg12 mi
2:00 AM41 °FLight rain. Overcast.10 mph87%29.62 "Hg12 mi
12:00 AM42 °FOvercast.6 mph81%29.60 "Hg12 mi
11:00 PM
Sun, Feb 7
42 °FPassing clouds.21 mph79%29.60 "Hg1 mi
10:00 PM42 °FPassing clouds.5 mph76%29.60 "Hg12 mi
9:00 PM43 °FPassing clouds.7 mph76%29.60 "Hg12 mi
8:00 PM43 °FPassing clouds.6 mph76%29.61 "Hg12 mi
Weather by CustomWeather, © 2016

See weather overviewHow to use our weather pages